Location: Choisy
(48.7685°N, 2.4187°E)
Time: 09:00:08
(UTC+00:00)

ATLAS 3B R/B - Pass Details

Date: 02 December 2023
Orbit: 947 x 1247 km, 63.8° (Epoch: 10 February)

Event Time Altitude Azimuth Distance (km) Brightness Sun altitude
Exits shadow 05:25:09 22° 249° (WSW) 2,222 3.9 -18.6°
Maximum altitude 05:29:50 57° 320° (NW) 1,349 2.9 -17.9°
Drops below altitude 10° 05:37:18 10° 39° (NE) 3,160 5.5 -16.7°
Sets 05:40:14 0° 43° (NE) 4,156 6.2 -16.2°
